Stündliche Wetter Celakovice

Heute, 26 Januar, Dienstag

Zeit Temperatur Niederschläge Wind Luftdruck Luftfeuchtigkeit
00:00 -4°C° 0 mm 2 m/S 738 mmHg 88%
01:00 -5°C° 0 mm 3 m/S 738 mmHg 87%
02:00 -5°C° 0 mm 3 m/S 739 mmHg 87%
03:00 -5°C° 0 mm 3 m/S 739 mmHg 87%
04:00 -5°C° 0 mm 3 m/S 740 mmHg 87%
05:00 -5°C° 0 mm 3 m/S 740 mmHg 87%
06:00 -5°C° 0 mm 3 m/S 740 mmHg 87%
07:00 -5°C° 0 mm 3 m/S 740 mmHg 85%
08:00 -4°C° 0 mm 4 m/S 740 mmHg 83%
09:00 -3°C° 0 mm 4 m/S 740 mmHg 82%
10:00 -3°C° 0 mm 4 m/S 740 mmHg 80%
11:00 -2°C° 0.2 mm 4 m/S 740 mmHg 84%
12:00 -2°C° 0.2 mm 4 m/S 740 mmHg 89%
13:00 -1°C° 0.2 mm 3 m/S 740 mmHg 93%
14:00 -1°C° 0.5 mm 2 m/S 740 mmHg 94%
15:00 -1°C° 0.5 mm 2 m/S 740 mmHg 95%
16:00 +1°C° 0.5 mm 1 m/S 740 mmHg 96%
17:00 -1°C° 0.1 mm 2 m/S 740 mmHg 95%
18:00 -1°C° 0.1 mm 2 m/S 741 mmHg 95%
19:00 -2°C° 0.1 mm 3 m/S 741 mmHg 94%
20:00 -2°C° 0 mm 3 m/S 742 mmHg 93%
21:00 -2°C° 0 mm 3 m/S 742 mmHg 92%
22:00 -4°C° 0 mm 3 m/S 743 mmHg 90%
23:00 -4°C° 0 mm 3 m/S 743 mmHg 89%

Morgen, 27 Januar, Mittwoch

Zeit Temperatur Niederschläge Wind Luftdruck Luftfeuchtigkeit
00:00 -4°C° 0 mm 4 m/S 743 mmHg 88%
01:00 -4°C° 0 mm 4 m/S 744 mmHg 87%
02:00 -4°C° 0 mm 4 m/S 744 mmHg 86%
03:00 -4°C° 0 mm 4 m/S 743 mmHg 86%
04:00 -4°C° 0 mm 4 m/S 743 mmHg 85%
05:00 -4°C° 0 mm 4 m/S 743 mmHg 86%
06:00 -4°C° 0 mm 4 m/S 743 mmHg 86%
07:00 -5°C° 0 mm 3 m/S 743 mmHg 87%
08:00 -4°C° 0 mm 3 m/S 743 mmHg 86%
09:00 -3°C° 0 mm 4 m/S 743 mmHg 85%
10:00 -3°C° 0 mm 4 m/S 743 mmHg 83%
11:00 -1°C° 0 mm 3 m/S 743 mmHg 83%
12:00 0°C° 0 mm 3 m/S 742 mmHg 82%
13:00 0°C° 0 mm 3 m/S 742 mmHg 81%
14:00 0°C° 0 mm 3 m/S 741 mmHg 82%
15:00 +1°C° 0 mm 2 m/S 741 mmHg 83%
16:00 +1°C° 0 mm 1 m/S 740 mmHg 84%
17:00 -1°C° 0 mm 2 m/S 741 mmHg 85%
18:00 -2°C° 0 mm 2 m/S 741 mmHg 86%
19:00 -2°C° 0 mm 2 m/S 741 mmHg 87%
20:00 -2°C° 0 mm 2 m/S 741 mmHg 89%
21:00 -4°C° 0 mm 3 m/S 740 mmHg 90%
22:00 -4°C° 0 mm 3 m/S 740 mmHg 91%
23:00 -4°C° 0 mm 3 m/S 740 mmHg 92%

übermorgen, 28 Januar, Donnerstag

Zeit Temperatur Niederschläge Wind Luftdruck Luftfeuchtigkeit
00:00 -2°C° 0 mm 3 m/S 740 mmHg 93%
01:00 -2°C° 0 mm 3 m/S 740 mmHg 93%
02:00 -1°C° 0.2 mm 3 m/S 739 mmHg 94%
03:00 -1°C° 0.2 mm 3 m/S 739 mmHg 95%
04:00 0°C° 0.2 mm 3 m/S 738 mmHg 95%
05:00 0°C° 0.2 mm 4 m/S 738 mmHg 96%
06:00 0°C° 0.2 mm 4 m/S 738 mmHg 96%
07:00 0°C° 0.2 mm 5 m/S 738 mmHg 97%
08:00 0°C° 0 mm 4 m/S 738 mmHg 97%
09:00 0°C° 0 mm 4 m/S 738 mmHg 96%
10:00 0°C° 0 mm 4 m/S 738 mmHg 96%
11:00 +1°C° 0.1 mm 3 m/S 738 mmHg 95%
12:00 +1°C° 0.1 mm 3 m/S 738 mmHg 94%
13:00 +2°C° 0.1 mm 2 m/S 737 mmHg 93%
14:00 +2°C° 0.1 mm 2 m/S 736 mmHg 94%
15:00 +3°C° 0.1 mm 1 m/S 736 mmHg 96%
16:00 +2°C° 0.1 mm 1 m/S 735 mmHg 97%
17:00 +2°C° 0.6 mm 1 m/S 734 mmHg 97%
18:00 -1°C° 0.6 mm 2 m/S 734 mmHg 97%
19:00 -1°C° 0.6 mm 3 m/S 733 mmHg 97%
20:00 -1°C° 0.7 mm 3 m/S 733 mmHg 97%
21:00 -2°C° 0.7 mm 3 m/S 732 mmHg 97%
22:00 -2°C° 0.7 mm 3 m/S 732 mmHg 96%
23:00 -2°C° 0.2 mm 2 m/S 732 mmHg 96%

29 Januar, Freitag

Zeit Temperatur Niederschläge Wind Luftdruck Luftfeuchtigkeit
00:00 -2°C° 0.2 mm 2 m/S 732 mmHg 96%
01:00 0°C° 0.2 mm 1 m/S 732 mmHg 96%
02:00 -1°C° 0.1 mm 1 m/S 733 mmHg 96%
03:00 -3°C° 0.1 mm 2 m/S 733 mmHg 95%
04:00 -3°C° 0.1 mm 2 m/S 733 mmHg 94%
05:00 -1°C° 0 mm 1 m/S 733 mmHg 94%
06:00 -2°C° 0 mm 1 m/S 733 mmHg 93%
07:00 -2°C° 0 mm 1 m/S 733 mmHg 93%
08:00 -1°C° 0 mm 1 m/S 733 mmHg 90%
09:00 -1°C° 0 mm 1 m/S 733 mmHg 86%
10:00 0°C° 0 mm 1 m/S 733 mmHg 83%
11:00 0°C° 0 mm 1 m/S 732 mmHg 81%
12:00 0°C° 0 mm 1 m/S 732 mmHg 79%
13:00 0°C° 0 mm 1 m/S 732 mmHg 77%
14:00 0°C° 0.4 mm 1 m/S 732 mmHg 82%
15:00 0°C° 0.4 mm 1 m/S 732 mmHg 88%
16:00 -1°C° 0.4 mm 1 m/S 732 mmHg 93%
17:00 -1°C° 0.3 mm 1 m/S 733 mmHg 94%
18:00 -1°C° 0.3 mm 1 m/S 733 mmHg 95%
19:00 -1°C° 0.3 mm 1 m/S 733 mmHg 96%
20:00 -1°C° 0.2 mm 1 m/S 733 mmHg 96%
21:00 -1°C° 0.2 mm 1 m/S 733 mmHg 96%
22:00 -2°C° 0.2 mm 1 m/S 733 mmHg 96%
23:00 -3°C° 0.1 mm 0 m/S 733 mmHg 96%

30 Januar, Samstag

Zeit Temperatur Niederschläge Wind Luftdruck Luftfeuchtigkeit
00:00 -3°C° 0.1 mm 0 m/S 733 mmHg 96%
01:00 -3°C° 0.1 mm 0 m/S 733 mmHg 95%
02:00 -3°C° 0.1 mm 0 m/S 732 mmHg 95%
03:00 -3°C° 0.1 mm 0 m/S 732 mmHg 95%
04:00 -2°C° 0.1 mm 1 m/S 732 mmHg 94%
05:00 -2°C° 0.4 mm 1 m/S 732 mmHg 95%
06:00 -4°C° 0.4 mm 2 m/S 731 mmHg 95%
07:00 -4°C° 0.4 mm 2 m/S 731 mmHg 96%
08:00 -4°C° 0.3 mm 2 m/S 732 mmHg 95%
09:00 -3°C° 0.3 mm 2 m/S 732 mmHg 93%
10:00 -3°C° 0.3 mm 2 m/S 732 mmHg 92%
11:00 -3°C° 0 mm 2 m/S 733 mmHg 90%
12:00 -2°C° 0 mm 2 m/S 733 mmHg 88%
13:00 -2°C° 0 mm 3 m/S 733 mmHg 86%
14:00 -2°C° 0 mm 3 m/S 733 mmHg 86%
15:00 -4°C° 0 mm 3 m/S 733 mmHg 86%
16:00 -4°C° 0 mm 3 m/S 733 mmHg 85%
17:00 -5°C° 0 mm 3 m/S 733 mmHg 87%
18:00 -5°C° 0 mm 2 m/S 734 mmHg 88%
19:00 -6°C° 0 mm 2 m/S 734 mmHg 89%
20:00 -7°C° 0 mm 2 m/S 735 mmHg 89%
21:00 -7°C° 0 mm 2 m/S 735 mmHg 90%
22:00 -7°C° 0 mm 2 m/S 736 mmHg 90%
23:00 -7°C° 0 mm 2 m/S 736 mmHg 90%

31 Januar, Sonntag

Zeit Temperatur Niederschläge Wind Luftdruck Luftfeuchtigkeit
00:00 -8°C° 0 mm 2 m/S 736 mmHg 91%
01:00 -7°C° 0 mm 1 m/S 737 mmHg 91%
02:00 -7°C° 0 mm 1 m/S 737 mmHg 91%
03:00 -8°C° 0 mm 2 m/S 737 mmHg 92%
04:00 -8°C° 0 mm 2 m/S 737 mmHg 92%
05:00 -8°C° 0 mm 2 m/S 738 mmHg 92%
06:00 -9°C° 0 mm 2 m/S 738 mmHg 92%
07:00 -10°C° 0 mm 3 m/S 738 mmHg 92%
08:00 -9°C° 0 mm 3 m/S 739 mmHg 90%
09:00 -8°C° 0 mm 3 m/S 739 mmHg 89%
10:00 -8°C° 0 mm 4 m/S 740 mmHg 88%
11:00 -8°C° 0 mm 4 m/S 740 mmHg 87%
12:00 -7°C° 0 mm 5 m/S 739 mmHg 87%
13:00 -6°C° 0 mm 5 m/S 739 mmHg 87%
14:00 -6°C° 0.1 mm 5 m/S 739 mmHg 87%
15:00 -5°C° 0.1 mm 4 m/S 739 mmHg 88%
16:00 -5°C° 0.1 mm 4 m/S 739 mmHg 89%
17:00 -5°C° 0.1 mm 4 m/S 739 mmHg 89%
18:00 -7°C° 0.1 mm 4 m/S 739 mmHg 89%
19:00 -6°C° 0.1 mm 3 m/S 739 mmHg 90%
20:00 -6°C° 0.1 mm 3 m/S 740 mmHg 90%
21:00 -6°C° 0.1 mm 3 m/S 740 mmHg 90%
22:00 -7°C° 0.1 mm 3 m/S 740 mmHg 91%
23:00 -7°C° 0.1 mm 3 m/S 740 mmHg 91%
Mehr zeigen

Wir brauchen deine Erlaubnis

Meteoprog und unser Service Anbieter werden persönliche Daten aufbewahren, so wie Cookies, Geräte Bezeichnung oder ähnliche Technologien von deinem Gerät und Prozess, so wie Persönliche Daten Inhalte und Werbungen, genauso wie social Media und den Verkehr zu analysieren.

  • Aufbewahrung und/oder Zugang zu deiner Geräte Informationen.

    Cookies, Geräte Bezeichnung oder andere Informationen, können aufbewahrt oder Zugang zu deinem Gerät erhalten, für den Grund, der oben angegeben wird.

  • Personalisierte Werbung und Inhalte, Messungen, Einblick in das Publikum und Produkt Entwicklung.

    Werbungen und Inhalte können personalisiert werden, basierend auf ein Profil. Mehr Daten können besser personalisierte Werbungen und Inhalte hinzufügen. Werbung und Inhalte können gezeigt und gemessen werden. Einblicke über das Publikum, welche die Werbung gesehen haben und den Inhalt, können abgeleitet werden. So wie Daten können genutzt werden, um es zu verbessern oder die Benutzer Erfahrung zu verbessern das System und die Software.

Wenn du “Ich stimme zu” klickst, erlaubst du uns, die Cookies zu benutzen die Geräte Bezeichnung, den Web oder ähnliche Technologien zu benutzen. Deine Settings, können in deinem Gerät bei deinem Browser geändert werden.

Für den bestimmten Zweck, berechtigten Interessen beruhen darauf, mehr als auf den Inhalt. Du kannst mehr darüber in unseren Privaten und Cookie Politik lesen.